TimeCST,TemperatureF,Dew PointF,Humidity,Sea Level PressureIn,VisibilityMPH,Wind Direction,Wind SpeedMPH,Gust SpeedMPH,PrecipitationIn,Events,Conditions,WindDirDegrees,DateUTC
12:55 PM,28.4,15.8,59,30.14,10.0,SSW,17.3,-,N/A,,Unknown,210,2013-01-15 18:55:00
1:15 PM,30.2,15.8,55,30.13,10.0,SW,17.3,-,N/A,,Clear,220,2013-01-15 19:15:00
1:35 PM,30.2,15.8,55,30.12,10.0,SW,20.7,-,N/A,,Clear,220,2013-01-15 19:35:00
1:55 PM,30.2,15.8,55,30.10,10.0,SSW,20.7,26.5,N/A,,Clear,200,2013-01-15 19:55:00
2:15 PM,30.2,14.0,51,30.10,10.0,SW,21.9,27.6,N/A,,Clear,220,2013-01-15 20:15:00
2:35 PM,32.0,15.8,51,30.10,10.0,SW,23.0,-,N/A,,Clear,220,2013-01-15 20:35:00
2:55 PM,32.0,15.8,51,30.09,10.0,SSW,21.9,-,N/A,,Clear,210,2013-01-15 20:55:00
3:15 PM,32.0,15.8,51,30.09,10.0,SSW,20.7,-,N/A,,Clear,210,2013-01-15 21:15:00
3:35 PM,30.2,15.8,55,30.08,10.0,SSW,21.9,-,N/A,,Clear,210,2013-01-15 21:35:00
3:55 PM,30.2,15.8,55,30.08,10.0,SSW,20.7,-,N/A,,Clear,200,2013-01-15 21:55:00
4:15 PM,30.2,15.8,55,30.07,10.0,SSW,18.4,-,N/A,,Clear,210,2013-01-15 22:15:00
4:35 PM,30.2,17.6,60,30.07,10.0,SSW,16.1,-,N/A,,Clear,210,2013-01-15 22:35:00
4:55 PM,28.4,17.6,64,30.07,10.0,SSW,15.0,-,N/A,,Clear,210,2013-01-15 22:55:00
5:35 PM,24.8,15.8,69,30.07,10.0,SSW,12.7,-,N/A,,Clear,200,2013-01-15 23:35:00
5:55 PM,24.8,15.8,69,30.07,10.0,SSW,12.7,-,N/A,,Clear,210,2013-01-15 23:55:00
6:15 PM,23.0,15.8,74,30.06,10.0,SSW,10.4,-,N/A,,Clear,210,2013-01-16 00:15:00
6:35 PM,24.8,15.8,69,30.05,10.0,SSW,13.8,-,N/A,,Clear,210,2013-01-16 00:35:00
6:55 PM,23.0,15.8,74,30.04,10.0,SSW,15.0,-,N/A,,Clear,210,2013-01-16 00:55:00
7:15 PM,23.0,15.8,74,30.04,10.0,SSW,13.8,-,N/A,,Clear,210,2013-01-16 01:15:00
7:35 PM,23.0,15.8,74,30.04,10.0,SSW,13.8,-,N/A,,Clear,210,2013-01-16 01:35:00
7:55 PM,23.0,15.8,74,30.03,10.0,SSW,13.8,-,N/A,,Clear,210,2013-01-16 01:55:00
8:15 PM,23.0,15.8,74,30.02,10.0,SSW,13.8,-,N/A,,Clear,210,2013-01-16 02:15:00
8:35 PM,23.0,15.8,74,30.02,10.0,SSW,13.8,-,N/A,,Clear,210,2013-01-16 02:35:00
8:55 PM,21.2,15.8,80,30.01,10.0,SSW,12.7,-,N/A,,Clear,210,2013-01-16 02:55:00
9:15 PM,21.2,15.8,80,29.99,10.0,SSW,13.8,-,N/A,,Clear,210,2013-01-16 03:15:00
9:35 PM,21.2,17.6,86,29.98,10.0,SSW,13.8,-,N/A,,Clear,210,2013-01-16 03:35:00
9:55 PM,21.2,17.6,86,29.96,10.0,SSW,13.8,-,N/A,,Clear,200,2013-01-16 03:55:00
10:15 PM,21.2,17.6,86,29.95,10.0,SSW,16.1,-,N/A,,Clear,210,2013-01-16 04:15:00
10:35 PM,21.2,17.6,86,29.95,10.0,SW,16.1,-,N/A,,Clear,220,2013-01-16 04:35:00
10:55 PM,21.2,17.6,86,29.94,10.0,SW,17.3,23.0,N/A,,Clear,220,2013-01-16 04:55:00
11:15 PM,21.2,17.6,86,29.93,10.0,SW,18.4,-,N/A,,Clear,220,2013-01-16 05:15:00
11:35 PM,21.2,17.6,86,29.92,10.0,SW,17.3,-,N/A,,Clear,220,2013-01-16 05:35:00